Theta_e
302 304 303 302 302 303 303 304 304 302 302 303 303 303 304 304 305 306 306 306 305 306 308 309 309 309 310 311 313 314 316 319 319 323 333 340 343 346 348 348 347 348 346 343 342 342 342 341 339 339 339 339 339 339 339 339 338 337 337 337 338 338 339 339 339 340 340 339 339 339 339 340 338 339 340 339 339 340 340 340 341 340 337 336 337 338
302 303 303 301 302 302 303 303 302 301 302 302 302 302 303 303 303 303 304 305 304 305 307 308 306 306 308 310 311 313 314 314 315 317 325 336 340 343 347 347 347 346 345 345 345 342 340 341 339 339 339 339 339 339 339 339 338 338 337 337 338 338 339 339 340 340 340 339 339 339 339 340 340 341 341 341 341 340 340 340 341 340 337 336 337 338
304 304 303 303 302 301 302 302 301 301 301 302 302 302 303 303 303 303 304 305 304 305 307 306 306 305 307 311 311 312 313 312 312 313 317 328 338 341 344 346 346 346 346 347 348 343 340 339 339 339 339 339 339 340 339 339 339 338 338 338 338 339 339 339 340 340 340 340 339 339 338 339 341 341 342 342 341 341 340 341 341 340 337 337 338 339
305 306 306 304 302 301 302 302 301 301 301 302 302 302 302 302 302 303 304 305 304 305 306 306 305 304 306 310 311 313 313 311 312 313 314 321 332 338 342 344 345 346 346 347 348 345 341 339 338 339 339 339 340 339 340 340 339 339 338 339 339 339 339 339 340 340 340 340 340 340 339 339 341 341 342 342 342 342 341 341 341 340 338 338 339 339
305 305 305 303 301 302 302 302 301 301 302 303 302 302 302 302 302 303 303 304 305 304 304 305 304 306 311 310 309 312 313 313 314 314 314 318 326 334 339 343 343 344 345 346 347 345 342 340 338 339 339 339 339 339 340 340 340 339 339 339 339 339 339 339 339 340 340 340 340 340 340 340 341 341 342 342 341 341 341 341 340 339 338 339 339 339
304 303 302 301 302 301 301 302 302 302 303 303 303 302 301 302 302 302 302 302 304 304 304 306 305 310 319 315 311 312 311 313 314 315 315 316 322 331 338 342 343 343 344 344 346 345 343 341 338 338 339 339 339 339 340 340 340 340 339 339 339 339 339 339 339 340 340 340 340 340 340 340 341 341 341 341 341 340 340 340 339 339 339 339 339 339
304 303 302 302 303 302 301 302 301 301 302 303 305 304 302 302 302 302 302 302 305 305 304 305 305 310 319 319 317 315 312 313 314 315 316 315 318 327 336 342 343 343 344 343 345 345 343 341 339 339 339 339 339 340 340 340 340 340 340 339 339 339 339 339 339 339 340 340 340 340 340 340 340 340 340 340 340 340 340 340 339 339 339 339 339 338
305 303 303 303 303 304 303 302 302 301 301 303 306 305 302 302 302 302 302 302 304 305 303 304 305 307 312 315 317 316 314 314 314 314 316 316 316 322 330 340 344 344 343 343 344 345 344 342 340 339 339 339 339 340 340 340 340 340 339 340 339 339 339 338 339 339 339 339 340 340 340 340 340 340 339 340 340 340 339 339 339 339 339 339 338 337
305 304 305 305 305 305 305 305 304 301 301 304 304 303 302 302 302 302 302 302 303 303 303 304 306 307 309 313 314 312 312 312 313 313 314 315 316 317 323 333 342 345 343 343 344 345 345 342 340 340 339 340 340 340 340 340 340 340 339 340 339 339 339 338 339 339 339 339 339 340 340 339 340 340 340 340 340 340 339 339 339 339 339 338 337 337
304 305 306 305 305 305 305 306 305 302 302 303 302 302 302 301 301 302 302 302 302 304 304 305 306 305 308 313 311 309 309 308 309 311 310 313 314 316 320 327 337 344 344 343 343 344 344 342 341 341 339 340 340 339 340 340 340 340 339 339 339 339 338 338 338 339 339 339 339 339 340 340 339 339 339 339 339 339 338 338 338 338 338 338 337 337
304 305 305 304 305 305 304 305 304 303 302 302 302 302 302 303 302 302 303 302 302 304 304 303 304 305 307 311 310 309 313 311 309 310 311 312 314 317 321 324 331 341 345 344 343 344 344 342 341 341 340 339 339 339 339 340 339 339 340 339 339 339 338 338 338 339 339 339 339 339 339 339 339 339 339 339 339 338 337 337 337 337 337 337 336 336
304 304 304 306 307 305 304 304 304 304 303 302 303 302 303 306 304 302 303 303 303 304 305 304 305 304 305 310 311 310 314 314 310 311 312 313 316 320 324 324 327 335 344 345 344 344 344 343 342 341 340 339 339 339 339 339 339 339 339 339 339 338 338 338 338 339 339 339 339 339 339 339 339 339 339 338 338 337 336 336 336 336 336 335 335 335
305 304 304 305 307 305 304 305 304 303 304 302 304 303 302 305 305 302 304 304 304 304 306 307 305 304 305 309 312 311 311 312 311 311 312 313 316 320 323 325 325 330 340 345 344 344 344 344 343 341 340 340 339 339 339 339 339 339 339 338 338 338 338 338 338 338 339 339 339 339 339 339 339 339 339 339 338 337 337 336 336 336 336 336 335 335
307 308 305 303 305 305 304 305 304 305 306 303 303 304 303 304 303 304 307 306 305 305 307 308 305 306 308 309 309 308 308 310 310 310 312 313 314 315 320 324 323 325 335 343 345 345 344 344 343 341 340 340 339 339 339 339 338 339 338 338 338 338 337 338 338 338 339 339 339 339 340 339 339 339 339 339 338 338 337 337 337 337 336 336 335 335
308 310 308 305 305 305 304 304 304 306 307 303 302 303 304 306 304 305 308 306 305 308 308 306 307 309 310 313 314 309 307 308 308 308 310 312 314 314 315 319 321 321 327 337 344 345 344 344 342 341 341 340 340 339 339 338 338 338 338 338 338 338 337 337 338 338 338 339 339 339 339 339 339 339 339 339 339 338 338 338 337 337 337 336 335 334
306 308 309 306 304 303 304 304 303 304 305 304 303 303 305 307 305 306 308 308 308 310 309 307 311 316 312 314 318 312 308 308 307 309 310 312 314 314 314 318 321 322 321 328 340 345 345 344 341 341 341 340 340 339 338 338 338 338 338 337 338 338 337 337 338 338 338 339 339 339 339 339 339 339 339 339 339 339 339 338 338 337 337 336 335 334
307 308 308 305 304 304 304 306 304 304 306 305 303 303 304 304 304 305 307 310 308 308 311 309 310 315 310 310 316 314 312 313 310 311 312 314 315 313 316 323 325 325 321 322 334 343 345 344 342 341 341 341 340 339 339 338 338 338 338 337 338 337 337 337 338 338 338 338 338 339 339 339 339 339 339 339 339 339 338 338 338 337 337 336 335 335
307 308 308 305 305 305 304 304 303 304 306 306 304 304 304 303 304 305 307 311 309 306 313 313 310 311 308 311 319 316 313 316 315 315 316 317 318 317 319 322 323 326 325 321 327 337 344 344 342 342 341 341 340 339 339 339 338 338 338 338 337 337 337 337 337 338 338 338 338 338 339 339 339 339 339 339 339 338 338 337 337 336 336 336 335 335
306 307 310 306 305 306 304 303 305 306 304 305 306 305 306 306 305 306 306 308 309 309 313 314 313 313 310 313 320 316 315 317 317 319 320 318 320 319 319 318 317 324 330 327 326 331 340 344 342 341 342 341 341 340 340 339 338 338 338 338 337 337 337 337 337 338 338 338 338 338 338 339 339 339 339 339 339 338 337 337 336 336 336 336 335 334
306 308 311 307 304 305 305 304 307 309 303 302 304 303 306 308 306 307 307 307 310 312 314 314 315 316 316 320 323 317 316 317 315 319 320 318 319 319 319 318 316 321 331 334 331 330 336 342 342 341 342 342 341 340 340 339 338 338 337 337 337 337 337 337 337 337 337 338 338 337 338 338 338 339 338 338 338 338 336 336 336 335 335 335 335 334
307 307 309 309 306 305 305 305 308 309 305 303 304 303 304 305 304 307 308 307 310 314 317 316 316 320 321 323 324 317 315 316 315 317 319 320 321 320 321 322 319 321 325 331 334 334 334 339 342 341 342 342 341 341 340 339 338 337 337 337 337 337 336 337 337 337 337 337 337 337 337 337 338 338 338 338 338 337 336 335 335 335 335 334 334 334
308 308 307 308 308 307 307 307 307 307 305 305 304 304 304 303 304 306 306 308 309 312 317 315 314 321 322 319 321 318 315 316 316 317 319 321 322 322 323 323 322 323 323 326 332 335 335 338 340 341 342 342 341 341 340 339 338 337 337 337 337 336 336 337 337 337 338 337 337 337 337 337 337 337 338 338 337 336 336 335 334 334 334 333 333 333
309 309 308 308 307 306 306 306 305 305 305 305 304 304 304 304 305 305 308 313 312 310 315 314 312 320 323 319 320 317 313 314 316 316 319 321 322 322 323 322 321 322 323 324 328 333 336 338 339 340 341 341 341 341 340 339 339 338 337 337 337 336 336 336 337 337 337 337 337 337 337 336 337 337 337 337 336 336 335 334 334 334 334 333 332 332
310 310 309 308 308 307 306 306 305 304 305 306 307 307 305 304 304 305 309 314 313 311 313 313 314 320 324 322 319 315 313 314 316 316 317 318 320 320 320 321 320 320 322 323 326 332 336 337 339 340 341 341 341 341 340 340 339 338 338 337 337 337 336 336 337 337 337 337 337 337 336 336 336 336 336 336 335 335 335 334 334 334 333 332 332 332
310 310 309 309 310 309 308 308 307 306 306 308 312 310 306 304 303 303 305 307 309 313 312 311 316 321 322 319 314 313 313 313 314 314 314 316 317 317 318 320 319 320 321 322 324 332 337 338 340 341 341 341 340 341 340 340 339 339 338 338 337 337 337 336 337 337 337 337 337 336 336 336 335 335 335 335 335 335 334 334 334 333 332 332 331 331
309 310 309 310 311 310 310 311 309 308 308 309 311 309 306 305 302 304 307 305 308 314 312 309 312 314 314 313 311 313 314 313 313 312 311 313 315 317 319 319 319 320 321 321 323 330 337 339 340 341 341 340 340 341 340 340 340 339 338 338 337 337 337 337 337 337 337 337 336 336 335 335 335 334 334 334 334 334 334 333 333 332 330 330 330 331
309 310 309 309 311 310 310 310 308 307 308 309 309 307 306 305 302 306 311 308 307 312 312 311 311 309 310 313 314 316 314 312 312 311 312 312 313 316 318 319 320 319 321 322 323 329 337 339 340 342 341 340 340 341 340 340 340 339 339 338 338 337 337 337 337 337 337 337 336 335 335 335 334 334 334 334 334 334 334 333 332 330 328 329 330 331
310 311 310 310 310 309 309 309 307 308 309 308 308 308 307 306 304 307 310 309 310 310 310 314 315 312 312 314 315 314 312 312 312 311 311 312 313 316 318 319 319 320 322 324 325 330 337 340 340 342 341 340 341 341 340 340 340 339 339 339 338 338 337 337 337 337 337 336 336 335 335 335 334 333 333 333 333 334 333 332 331 329 328 329 330 330
310 311 311 311 310 310 310 309 308 308 308 308 308 309 307 306 306 306 306 308 312 311 311 317 319 314 311 311 312 313 312 311 310 310 312 314 316 318 318 318 320 322 323 324 326 332 337 340 340 341 342 341 340 341 341 340 340 340 339 339 338 338 338 337 337 337 337 336 335 335 335 334 333 333 332 333 333 333 332 331 331 330 329 329 330 329
310 311 311 312 311 311 310 310 310 309 308 309 310 310 308 306 306 306 305 307 310 309 311 314 315 312 311 310 312 311 310 311 312 314 317 319 319 319 318 319 321 324 324 323 327 334 337 340 341 341 342 341 340 341 341 340 340 340 340 340 339 338 338 338 337 337 337 336 335 335 334 334 333 332 332 332 333 332 330 330 330 329 328 328 328 327
310 311 312 311 312 312 312 311 310 310 309 310 310 311 310 307 305 305 306 309 310 310 311 312 313 312 310 310 311 311 312 317 320 320 320 319 319 318 319 321 323 324 323 322 328 336 339 340 341 341 342 341 340 341 341 340 340 340 340 340 339 338 338 338 337 337 337 336 335 335 334 333 332 332 331 332 332 331 330 329 329 328 328 328 327 325
309 312 313 312 313 315 314 313 312 310 309 311 311 311 311 308 305 305 306 308 309 309 310 312 312 309 307 309 311 312 317 322 322 320 319 318 319 320 323 323 322 322 322 322 328 337 340 340 341 342 341 341 341 341 341 341 340 340 340 340 339 339 338 338 338 337 337 336 335 334 334 333 332 331 331 331 331 331 329 328 328 327 327 327 326 325
310 312 314 314 315 316 314 314 314 312 312 314 315 313 311 309 306 305 306 308 308 308 309 310 308 306 308 311 311 311 314 318 318 318 318 319 321 323 323 321 320 320 321 322 328 337 340 340 341 341 341 341 341 341 341 340 340 340 340 340 339 339 338 339 338 337 337 336 335 334 333 332 331 331 331 330 329 329 329 328 326 326 327 326 325 325
311 312 314 315 317 318 314 311 312 314 315 317 317 315 313 310 308 306 306 306 306 306 306 307 306 306 309 311 310 310 312 313 315 317 318 320 322 322 321 320 319 320 320 322 328 336 340 340 341 341 340 341 341 341 341 340 340 340 340 340 339 339 338 338 337 337 336 335 334 334 333 332 332 331 330 328 327 327 327 327 327 326 327 325 323 323
313 314 314 316 317 317 314 312 314 317 316 315 316 316 313 310 307 306 307 307 307 307 307 307 307 308 310 310 310 311 312 314 316 318 320 321 321 321 320 320 319 320 321 323 327 336 340 341 342 341 340 340 341 340 340 340 340 340 340 339 339 339 338 338 337 337 336 334 334 333 332 332 332 331 329 327 327 326 325 325 326 325 325 324 323 324
313 315 316 317 317 316 316 317 318 318 316 315 318 319 316 313 310 307 308 309 310 310 310 309 308 309 309 310 310 313 317 320 320 322 324 322 320 320 320 320 321 322 322 323 327 336 341 340 340 341 340 340 340 340 340 340 339 339 339 339 339 338 338 338 337 336 335 334 333 332 332 332 331 329 328 326 326 325 324 323 323 324 324 323 322 322
316 316 317 317 318 318 319 319 318 318 317 317 320 318 315 317 318 313 312 315 316 317 317 316 315 315 314 314 317 321 325 327 324 323 324 324 324 325 325 323 323 322 322 323 327 334 339 339 339 339 339 339 339 339 339 339 338 339 338 338 338 338 338 337 336 336 335 333 333 332 331 331 330 329 327 326 325 325 324 323 321 322 323 321 319 320
317 316 316 317 318 319 319 319 318 320 320 318 318 316 314 317 320 318 319 323 322 320 321 322 323 323 323 323 324 325 328 330 327 323 323 325 328 331 330 328 328 326 324 324 328 334 337 337 338 339 338 339 338 338 339 338 338 338 338 337 338 337 337 337 336 335 334 333 332 331 331 331 330 328 326 325 325 324 323 323 322 322 323 321 320 322
317 316 316 317 318 319 319 319 318 319 319 317 317 316 315 318 320 318 320 326 324 320 321 323 324 324 324 325 325 325 330 332 329 324 323 325 328 327 326 328 332 332 328 326 329 335 337 336 337 338 338 338 337 338 338 338 337 338 337 337 337 337 337 336 335 335 333 332 332 331 331 330 329 328 326 325 325 324 323 322 323 324 323 321 322 323
317 318 317 317 318 318 318 319 319 317 317 317 316 317 318 319 319 318 322 326 325 322 321 323 324 324 324 324 324 326 330 333 330 326 325 326 325 324 323 326 332 335 332 329 331 334 336 335 336 336 336 337 337 337 338 337 337 337 336 336 337 336 336 336 335 334 333 332 331 331 331 330 328 327 326 325 325 324 322 321 322 323 322 320 321 320
317 318 317 318 318 318 318 319 320 317 317 317 317 317 319 318 318 321 324 325 323 322 322 322 324 324 323 324 325 326 327 329 327 326 326 325 324 323 323 325 329 331 331 331 332 333 334 335 335 335 336 336 336 337 337 337 336 336 336 336 336 336 336 336 335 334 333 332 331 330 329 328 328 327 326 325 325 324 322 321 322 322 322 320 319 317
317 317 318 319 319 318 318 320 321 319 317 317 316 317 319 319 320 322 323 322 322 322 322 322 323 323 323 324 324 324 324 324 324 325 325 324 323 323 323 326 330 330 329 330 332 333 333 334 334 335 336 336 336 335 335 336 336 335 335 335 336 336 335 335 333 332 331 331 330 329 328 327 328 328 325 324 324 323 322 321 321 321 321 319 317 316
317 317 319 319 319 319 320 321 322 320 318 316 317 318 320 321 321 320 320 321 322 322 322 322 322 323 323 323 324 324 323 324 324 324 324 323 323 323 323 326 331 332 331 331 332 332 333 333 334 335 335 334 334 333 334 335 335 334 334 335 335 335 334 333 332 331 330 329 328 328 327 327 328 327 325 323 323 322 321 320 319 319 318 317 316 315
318 318 320 319 319 320 321 321 322 322 319 318 318 319 320 320 320 320 320 321 321 321 322 322 322 322 322 322 323 323 324 324 324 324 324 324 324 324 324 326 330 332 331 330 329 330 331 332 332 333 333 333 332 332 334 335 334 333 334 334 334 334 332 331 331 330 329 328 328 327 327 326 326 325 324 323 322 322 321 320 318 317 317 316 315 314
318 318 319 319 318 319 320 321 321 321 320 319 319 319 319 320 320 320 320 321 321 320 321 321 321 322 321 322 323 324 324 324 323 323 324 324 324 325 325 326 327 328 328 328 328 330 331 331 331 332 332 332 331 331 333 334 333 332 332 332 333 333 331 331 330 329 329 328 328 327 325 324 324 324 323 322 322 321 320 319 317 316 315 315 314 314
319 318 319 320 320 320 320 319 319 320 320 319 320 320 320 321 321 320 320 320 320 319 320 321 321 321 321 321 323 324 323 323 323 324 324 324 324 325 326 326 325 325 326 327 327 329 330 330 330 330 330 330 331 330 331 332 331 330 331 331 332 332 332 331 330 329 328 328 326 324 324 323 322 322 321 321 321 321 321 319 318 316 315 314 314 314
318 317 318 319 319 320 320 319 319 319 319 319 320 320 320 321 321 320 320 320 319 319 319 320 320 320 320 321 323 323 323 323 323 324 324 324 325 326 327 327 327 326 327 328 328 328 329 329 329 329 328 328 330 330 331 331 330 330 331 331 331 331 330 330 329 328 327 325 324 323 322 322 321 320 320 320 319 319 319 318 317 316 315 314 314 313
314 314 317 318 316 317 317 317 317 318 319 320 320 320 320 320 320 320 320 319 319 319 319 319 320 319 319 321 322 322 323 323 323 324 324 325 325 326 326 327 328 328 327 327 327 328 328 328 328 328 327 328 329 330 331 331 331 331 331 330 329 329 329 328 327 326 325 323 322 321 321 321 321 320 320 319 319 318 317 317 317 316 316 316 315 314
312 313 315 314 313 315 316 316 317 318 319 320 320 319 319 320 319 319 319 319 318 318 318 318 318 319 320 321 321 322 324 324 323 323 325 325 325 325 325 326 327 327 326 327 327 328 329 328 328 328 328 328 329 330 330 330 331 330 330 329 329 328 328 327 326 325 323 322 321 320 320 320 320 320 320 319 319 318 318 318 318 318 318 318 318 318
312 312 312 312 314 316 315 314 315 317 319 320 319 318 319 319 318 318 319 319 318 318 317 317 318 319 320 320 320 321 323 323 322 322 324 325 325 324 325 326 326 325 325 326 328 328 329 329 328 328 328 328 329 330 330 330 330 330 330 329 328 327 326 325 324 323 322 321 320 320 320 319 319 320 319 319 318 317 317 317 317 318 318 318 318 318
311 310 310 312 313 314 313 313 314 316 318 320 319 318 319 318 317 318 319 319 318 318 317 317 318 320 320 320 320 320 320 321 321 322 323 324 324 323 323 323 325 325 325 326 327 327 328 328 328 327 327 328 329 329 329 329 329 329 329 328 327 327 326 325 323 322 321 320 320 320 319 319 318 318 318 318 318 317 316 315 315 316 317 317 316 316
Wind_Speed
3 1 2 2 1 3 5 6 5 2 3 4 3 3 3 3 5 4 6 7 4 4 6 7 8 9 7 6 7 7 6 7 7 6 7 8 8 9 9 10 10 11 12 13 14 14 18 21 23 26 29 31 31 30 31 32 31 31 30 29 28 28 29 29 29 29 30 29 29 28 27 27 27 27 26 25 24 23 22 19 17 17 17 16 14 11
2 1 3 2 5 6 6 5 3 1 3 4 3 4 4 4 6 5 6 10 5 2 6 8 9 9 7 7 7 6 6 9 9 7 8 9 9 8 11 13 12 11 10 8 8 13 20 22 23 27 30 32 33 33 34 34 33 32 30 30 30 30 31 31 31 30 30 29 28 26 26 26 27 27 26 25 25 24 22 20 18 18 18 17 15 12
2 3 5 6 6 5 4 4 4 4 4 4 3 3 4 3 4 5 6 8 5 2 6 8 9 8 7 7 8 7 7 9 10 9 9 10 10 9 10 12 12 11 9 6 8 12 19 22 24 26 28 32 34 34 34 33 33 32 32 32 32 32 32 32 32 31 30 28 26 24 24 25 25 25 25 24 23 23 22 20 19 19 19 18 15 13
2 4 7 6 3 3 3 3 3 3 3 4 4 3 4 3 2 4 4 4 4 4 6 7 8 7 5 6 7 8 8 8 8 8 8 8 11 12 12 11 12 13 12 9 9 10 15 20 23 25 27 30 31 31 34 34 35 35 35 35 33 33 34 34 33 31 30 28 25 24 23 24 24 24 24 23 22 23 22 21 20 20 20 18 15 14
5 7 6 2 2 4 4 4 3 3 3 3 5 5 5 4 5 6 4 4 5 7 6 4 7 7 4 5 6 8 8 7 7 7 7 6 8 10 10 11 12 13 13 13 12 11 12 16 22 26 28 30 30 32 36 38 39 38 37 36 34 34 34 34 34 32 31 28 25 23 22 23 23 22 23 23 22 22 22 21 21 21 19 18 15 14
7 8 4 2 4 5 5 6 5 5 3 3 5 8 9 7 7 8 5 2 4 7 4 4 5 7 3 4 6 6 7 8 6 7 8 7 7 8 8 9 11 11 12 13 15 14 13 16 21 26 28 30 30 33 37 40 40 38 37 36 35 35 35 35 34 33 32 29 28 26 25 25 23 22 24 25 24 22 21 21 21 20 19 17 15 14
4 4 4 5 6 5 5 6 4 6 4 3 4 8 10 8 7 8 6 3 3 5 3 3 5 6 4 4 6 5 6 9 8 7 9 7 6 8 8 9 11 10 10 11 12 13 14 16 18 21 26 30 32 36 38 38 37 37 36 37 36 35 35 35 35 34 33 31 30 29 28 27 25 24 24 24 23 23 22 21 21 20 19 17 15 14
2 2 2 4 4 4 5 4 4 6 5 3 5 6 7 7 8 8 7 5 5 5 4 2 3 4 3 5 6 3 4 8 9 10 10 7 7 8 9 10 11 12 11 10 10 11 13 15 17 22 27 33 36 36 36 35 36 38 37 37 36 35 35 35 35 35 35 33 32 31 29 28 28 26 23 21 22 22 22 22 21 20 18 17 15 14
3 3 4 4 4 4 4 4 5 6 4 6 7 5 6 7 8 8 6 5 5 4 4 4 3 3 4 5 5 4 4 7 8 11 11 8 7 8 9 9 10 11 12 12 12 12 13 14 20 25 30 35 37 35 35 36 37 37 36 36 36 36 34 34 35 36 36 35 33 31 30 29 27 25 23 22 22 22 22 21 20 19 18 17 16 15
3 5 6 5 4 5 5 6 6 6 5 6 4 2 4 5 6 6 5 5 4 3 5 6 4 3 5 4 4 5 7 8 9 10 9 7 7 6 7 8 8 9 9 10 12 12 13 17 23 26 28 31 32 33 36 36 34 33 34 35 36 36 34 35 36 37 36 35 34 32 31 30 27 24 24 23 22 23 22 21 21 20 19 18 17 16
4 4 3 3 5 5 5 6 6 7 7 4 3 3 4 3 3 3 4 4 3 4 7 9 7 6 5 4 5 6 7 9 8 8 7 5 5 6 7 8 8 8 7 9 10 11 13 19 23 24 24 24 23 25 29 30 31 33 34 35 36 35 34 35 36 36 36 35 34 34 32 31 28 26 26 25 24 23 22 22 21 20 20 19 18 16
4 4 3 4 5 6 4 5 5 6 5 2 2 2 3 4 1 1 1 3 3 5 6 8 8 7 6 4 4 7 8 9 8 7 8 7 6 6 6 6 7 8 8 9 10 10 11 14 17 20 20 19 20 22 25 28 31 33 34 35 34 34 34 35 35 36 36 35 34 34 33 32 31 29 29 28 27 25 24 24 22 21 20 19 18 16
3 5 6 4 4 7 5 4 4 4 3 4 3 1 1 3 2 0 2 2 4 6 5 6 6 5 6 6 7 9 8 9 8 8 8 8 7 6 6 6 7 6 7 8 9 10 10 11 12 15 18 20 22 24 27 29 31 32 33 34 34 34 35 35 35 35 35 35 35 35 34 33 32 31 30 30 29 28 26 25 24 23 22 21 20 18
3 4 4 2 2 6 9 5 3 3 3 5 4 3 4 3 0 2 4 2 3 5 4 5 5 3 4 5 10 13 11 11 10 9 9 8 8 7 7 6 6 6 7 7 8 9 10 11 11 14 19 22 24 27 29 30 31 32 32 33 34 34 35 35 35 35 35 35 36 35 34 34 32 32 31 31 30 29 28 27 26 25 24 23 22 21
3 5 3 4 1 3 8 8 6 5 3 4 4 3 3 3 2 2 3 2 3 4 4 4 4 4 4 4 10 13 12 11 11 9 8 7 8 7 5 5 5 6 7 7 8 9 10 11 12 16 21 23 26 29 31 31 32 32 33 34 35 35 35 36 35 36 36 36 35 35 34 34 34 33 32 32 31 30 29 28 27 26 25 24 23 22
3 6 5 5 1 2 5 4 4 4 3 3 3 3 1 4 3 2 3 3 3 3 4 3 3 4 4 4 6 7 8 9 9 8 7 8 8 5 4 5 6 6 7 7 8 10 11 12 14 18 22 24 27 30 32 32 33 34 34 36 37 37 36 36 36 36 36 36 35 34 34 34 34 33 32 32 31 30 30 29 27 26 26 25 23 22
3 5 4 3 3 3 6 5 4 5 4 2 4 5 4 4 3 2 4 2 1 2 4 2 4 5 4 5 6 4 6 7 7 7 7 8 6 2 3 5 5 6 7 8 9 10 12 13 15 19 23 25 27 29 32 34 36 37 37 38 38 36 35 36 37 37 36 35 35 34 35 35 34 34 33 32 31 30 29 27 27 26 26 25 23 22
3 5 4 3 7 7 5 5 4 5 5 3 4 6 3 3 2 1 2 3 1 2 4 1 5 5 5 5 5 3 6 7 6 4 3 3 3 1 3 5 5 7 7 8 10 11 12 13 15 20 24 27 30 32 35 37 39 40 39 39 39 37 37 39 37 36 36 35 35 34 35 35 35 35 34 33 32 30 29 27 27 27 27 26 24 22
2 4 5 4 7 5 1 3 2 5 4 4 3 3 3 2 2 1 1 1 1 2 3 3 2 4 6 4 3 3 6 4 5 3 4 4 4 4 3 3 5 7 6 7 8 9 11 12 15 20 24 26 30 33 36 38 38 38 37 38 39 39 39 38 35 35 35 36 35 35 35 36 36 35 35 33 32 30 29 29 28 28 28 27 25 23
3 2 4 3 3 1 2 2 3 4 3 3 1 1 2 3 2 1 1 2 2 2 2 2 2 3 4 5 4 4 5 2 2 4 3 4 4 4 4 4 4 6 5 6 7 9 11 13 16 23 26 28 31 32 33 34 34 35 36 36 36 36 34 34 35 35 35 35 35 34 35 35 36 35 35 34 32 31 30 30 30 29 29 28 25 24
2 3 3 3 3 1 1 2 5 5 3 3 2 3 4 2 2 1 2 1 3 2 2 1 1 4 5 4 5 4 5 5 3 2 3 5 4 5 6 5 4 5 6 6 7 9 12 13 16 24 29 29 31 32 31 31 32 34 35 34 35 34 34 35 36 36 36 35 34 34 34 35 36 35 35 34 32 31 30 30 30 30 30 29 26 25
2 3 3 3 3 3 5 5 5 6 5 5 4 4 4 3 3 2 2 3 1 2 3 3 1 6 6 3 5 5 5 4 3 0 4 5 5 6 6 6 5 5 6 7 8 9 11 12 15 21 26 27 28 29 29 29 30 31 32 33 34 34 35 36 37 37 36 35 34 34 35 35 35 35 34 34 32 31 30 30 30 30 30 30 28 26
3 1 3 5 5 6 7 6 5 6 4 2 3 2 3 2 4 4 3 3 1 1 1 2 1 5 5 3 3 2 1 2 3 3 4 6 6 6 7 8 7 6 7 8 8 8 10 11 14 19 23 26 27 28 29 29 30 31 33 34 34 34 36 37 37 36 35 34 34 34 34 34 34 34 34 33 32 31 30 30 30 30 31 30 28 26
4 2 3 5 3 5 7 6 6 6 3 2 3 4 3 3 4 5 5 3 1 1 0 1 2 6 5 3 2 3 3 2 3 4 4 6 6 5 7 8 8 7 7 6 5 6 9 10 13 15 17 20 24 26 28 30 30 31 33 34 34 35 36 35 35 35 34 34 33 33 34 34 34 34 34 33 32 32 31 30 30 30 31 31 29 26
4 2 2 2 2 3 3 2 3 2 2 3 3 4 6 6 6 5 3 2 1 3 3 2 4 6 5 5 5 5 5 5 5 4 4 5 6 7 8 8 8 9 7 7 7 5 9 11 12 13 13 16 21 25 27 29 31 32 33 34 35 35 34 33 34 34 34 34 33 33 34 35 34 34 34 33 32 32 31 30 30 30 31 31 30 27
2 2 3 3 4 4 2 2 2 1 3 3 3 5 8 8 8 5 2 3 3 4 4 4 5 6 6 8 10 10 8 9 10 10 7 5 5 7 8 8 9 8 8 8 9 6 9 11 12 13 13 16 21 24 26 29 31 32 33 35 36 35 34 34 34 35 34 33 33 34 35 35 35 34 34 33 32 32 31 30 30 30 30 30 30 27
1 3 6 7 7 7 5 3 2 2 2 2 4 7 8 7 8 4 3 4 5 2 2 5 6 6 8 7 8 9 9 9 10 11 11 8 7 8 7 8 9 8 7 8 9 8 9 11 13 14 14 17 23 26 28 30 31 31 32 33 34 34 34 34 35 35 34 34 34 34 35 36 35 35 34 33 32 31 30 30 29 28 28 28 27 25
0 4 7 9 11 12 10 7 3 3 0 3 4 6 8 7 7 6 5 5 4 3 4 7 5 5 7 6 7 8 9 9 10 10 10 9 9 10 8 8 10 9 7 7 10 10 10 11 13 15 15 17 23 27 28 30 31 32 33 34 34 34 34 34 35 35 34 34 34 34 36 36 35 35 34 33 32 31 30 29 28 27 27 27 26 24
1 4 4 7 11 13 12 10 6 6 5 5 4 5 7 7 9 10 9 5 2 4 6 5 5 7 7 7 9 10 9 10 10 10 9 8 9 11 10 10 10 9 8 9 11 11 11 13 14 15 16 17 21 25 27 28 29 31 31 32 33 34 35 35 35 35 35 35 35 35 35 35 34 34 34 33 32 30 29 29 29 29 28 28 26 24
1 3 3 6 9 12 11 11 7 7 7 6 5 6 6 7 10 11 9 7 7 8 8 7 9 11 10 9 11 11 10 9 8 8 8 9 11 11 11 10 8 8 8 10 12 12 13 14 15 16 16 16 19 23 25 26 28 30 30 31 31 32 33 35 35 34 34 34 34 34 34 34 33 33 33 33 32 31 30 30 30 29 29 27 25 23
2 2 2 5 4 7 6 6 6 7 7 6 7 7 7 8 10 10 8 8 7 8 9 8 10 12 11 9 9 10 9 6 7 8 9 10 11 11 10 8 8 8 9 10 12 12 14 15 15 15 15 16 19 23 26 26 28 30 31 31 32 33 34 35 35 34 34 34 33 33 34 34 34 34 34 33 33 31 31 30 30 29 29 27 24 23
3 2 1 3 2 3 2 2 5 6 4 4 7 9 10 10 9 9 9 9 9 9 9 8 8 11 9 3 4 8 8 7 9 10 10 10 10 7 7 9 10 11 11 11 11 11 14 15 15 15 15 16 20 24 26 27 27 29 30 32 33 33 35 35 35 34 34 33 33 34 35 35 34 35 35 33 33 33 32 31 30 30 30 27 25 24
4 3 2 1 2 2 2 3 5 6 3 2 7 10 13 12 10 9 8 10 13 11 8 8 10 9 4 2 5 10 10 10 11 10 9 10 7 6 8 10 13 14 13 12 11 11 14 14 14 15 16 17 22 26 29 29 29 29 32 34 34 33 34 35 35 34 33 33 35 36 36 35 35 34 34 33 32 33 33 32 31 31 29 27 26 26
4 4 3 2 2 2 3 3 3 3 2 4 6 8 14 16 14 13 12 13 15 12 9 10 10 8 6 5 9 12 12 12 12 10 8 6 5 7 11 13 14 14 13 12 11 11 12 12 12 14 18 22 26 29 31 32 31 31 33 34 34 34 35 34 33 33 33 34 36 37 37 36 36 34 32 32 31 32 33 33 33 31 29 28 27 27
3 4 3 2 1 1 2 4 3 0 4 6 7 4 7 11 10 8 7 8 10 11 11 11 10 10 9 9 10 11 11 12 12 10 9 7 6 7 11 15 15 14 12 11 11 11 11 12 12 13 17 23 26 27 28 29 29 29 30 31 32 33 33 33 32 32 33 34 35 37 37 37 36 34 33 32 33 32 31 32 33 32 30 29 28 27
4 3 2 1 1 1 2 3 1 4 5 5 6 6 4 3 4 2 6 8 7 8 8 9 11 12 11 11 11 9 9 10 10 7 8 11 9 8 10 13 14 14 12 11 11 10 11 13 15 16 19 23 25 25 26 28 29 28 28 30 30 30 31 31 30 31 33 34 34 36 38 38 37 35 34 34 34 34 32 31 31 33 32 29 28 27
5 3 1 1 1 1 1 1 2 3 4 3 3 4 4 2 2 3 4 7 5 2 3 5 8 10 10 9 9 7 6 7 7 7 10 12 10 9 11 12 13 13 12 11 11 11 13 16 18 19 21 23 24 26 28 29 29 29 28 29 28 28 29 30 29 31 33 34 35 37 38 38 36 35 34 34 34 34 34 33 32 32 32 30 28 27
2 1 1 1 1 1 1 2 3 3 2 2 2 4 6 6 4 3 2 3 2 2 2 5 6 7 8 6 5 6 5 5 6 8 10 9 7 6 8 10 12 13 11 10 10 10 14 18 20 22 23 24 25 27 27 28 29 29 27 27 28 27 27 28 29 31 33 34 36 37 37 37 37 35 35 35 35 35 35 34 34 33 32 31 29 27
2 0 0 0 1 2 2 1 1 0 2 3 6 10 10 5 3 4 2 2 3 1 3 6 7 6 5 5 5 4 4 4 7 10 9 7 5 2 8 10 11 11 11 10 10 10 15 20 23 24 24 23 23 25 26 27 28 28 26 26 27 26 26 28 30 32 34 34 35 36 36 36 36 36 36 36 36 35 35 35 35 34 32 31 28 28
3 2 2 2 1 2 2 1 2 2 2 3 6 11 10 5 2 4 2 3 5 5 6 7 8 7 5 5 5 3 1 4 7 10 11 11 9 7 7 10 10 8 5 4 6 9 15 20 21 21 22 23 25 27 29 28 27 25 24 25 26 25 27 30 32 33 34 34 34 35 35 35 35 36 37 37 35 33 32 33 34 34 33 30 28 29
3 2 1 1 2 2 2 2 3 2 3 4 6 11 9 3 2 3 1 4 6 9 9 8 9 8 6 5 4 3 5 7 9 13 15 16 15 11 9 9 7 3 1 4 8 11 15 18 19 20 22 26 28 28 28 27 24 23 23 23 24 26 29 30 31 32 33 34 35 35 35 35 36 37 37 37 36 35 33 33 35 35 34 31 29 30
4 4 2 1 3 2 1 2 2 2 3 3 9 11 5 1 1 1 4 6 8 10 10 8 9 8 6 6 7 5 7 10 12 14 16 14 12 12 11 7 4 1 3 7 13 15 15 14 15 18 19 22 27 28 27 26 23 21 22 22 23 25 27 28 30 32 33 35 35 35 35 36 37 38 36 35 36 37 36 34 34 35 34 33 32 32
3 4 4 3 2 2 2 3 3 1 4 6 10 8 3 2 1 4 7 8 8 8 8 8 7 6 6 8 9 8 9 12 12 13 15 13 12 13 12 6 6 4 4 6 9 14 16 12 12 16 17 20 23 25 27 27 23 21 21 21 22 24 26 29 32 33 33 34 34 35 36 36 37 37 35 34 35 35 34 32 31 31 32 33 32 32
1 2 3 3 3 3 4 5 3 3 6 7 6 3 3 4 4 5 8 9 6 5 6 6 7 7 6 8 10 10 10 11 11 12 14 15 15 15 12 6 4 5 6 7 7 12 15 11 10 15 18 21 23 23 25 27 24 22 20 20 23 27 30 31 33 33 33 34 34 34 35 36 36 35 34 35 35 33 32 31 30 29 30 31 32 31
2 3 3 3 3 2 3 5 5 4 7 7 4 3 6 6 5 5 7 8 6 6 6 6 8 9 8 8 9 9 8 8 9 10 12 14 15 13 10 6 3 2 6 8 9 12 13 11 12 13 14 18 24 25 26 26 24 21 20 22 28 32 33 34 35 35 34 34 34 34 34 34 34 34 34 35 35 33 32 31 30 29 30 31 31 31
3 3 2 2 3 3 5 6 5 6 8 8 6 5 5 5 5 5 6 6 7 7 6 6 8 9 9 9 7 7 7 8 8 9 9 10 11 10 8 7 4 1 4 6 9 13 15 15 16 15 14 16 20 22 23 24 24 22 22 26 32 34 35 36 35 34 34 33 32 33 34 33 32 32 33 35 36 35 35 35 33 32 31 31 31 31
4 5 4 4 4 4 5 5 6 8 9 8 6 6 6 7 7 6 5 6 7 7 7 7 7 7 8 7 5 6 7 7 6 7 6 6 6 6 7 6 5 4 4 3 3 7 11 13 12 12 14 17 20 22 23 27 30 31 31 32 33 34 35 35 34 33 32 31 31 32 34 34 32 32 33 33 34 33 34 34 35 34 32 31 30 28
6 7 7 7 7 5 6 8 10 10 6 3 4 5 6 8 10 10 8 7 7 7 8 7 6 5 5 4 4 4 5 5 4 5 5 5 6 6 6 6 6 7 8 7 4 1 4 7 7 10 12 15 21 25 27 29 31 33 33 32 32 33 34 34 34 33 32 31 31 32 33 34 34 34 33 33 33 32 32 32 33 34 34 34 33 30
6 7 7 8 8 6 5 7 11 9 4 3 7 8 6 7 10 12 12 10 9 10 10 10 7 4 3 5 5 4 4 5 6 6 6 6 6 6 7 7 7 7 7 6 3 3 3 4 6 9 11 14 19 23 25 26 28 30 32 33 33 34 33 33 32 31 30 30 31 31 32 34 36 35 34 33 33 32 33 34 35 35 35 34 34 34
6 7 8 7 5 5 6 9 11 8 5 6 10 10 9 9 10 11 12 12 12 11 11 12 11 8 7 6 5 5 5 5 7 7 5 5 6 6 7 6 6 5 5 3 0 2 5 8 11 11 13 15 19 21 23 27 30 33 35 36 34 33 32 32 30 28 28 29 31 32 33 34 34 34 33 33 32 30 28 29 30 31 31 31 32 33
4 5 7 5 4 6 9 11 9 5 5 7 9 9 8 9 9 10 10 11 10 9 9 10 10 10 9 8 7 7 5 5 5 6 5 5 5 6 6 6 5 4 4 3 3 4 4 7 12 13 14 18 21 24 25 27 31 35 38 38 37 35 35 33 30 26 27 28 30 32 33 32 31 31 31 31 32 31 28 26 24 24 25 26 28 29
Wind_Direction
75 49 261 226 121 165 220 215 210 276 314 286 291 271 259 267 271 277 283 293 1 349 277 261 270 274 272 267 266 273 269 251 240 224 225 222 210 201 199 204 201 204 217 218 208 186 178 184 181 178 179 182 186 189 191 193 194 194 192 192 195 199 200 199 199 200 199 198 197 198 200 202 203 203 202 202 203 207 210 213 218 221 221 219 221 223
44 269 264 193 181 203 226 225 215 272 282 273 276 282 273 248 261 262 266 284 310 314 272 279 287 286 281 277 273 264 259 257 239 213 219 222 220 212 199 203 203 207 217 202 174 164 171 178 176 176 177 179 184 189 192 193 194 194 193 194 196 199 200 200 200 200 200 200 198 197 197 199 201 202 202 202 203 207 211 215 221 222 220 220 221 223
320 273 269 246 215 208 242 235 218 230 237 242 237 262 266 247 272 269 252 269 280 257 270 282 283 279 270 266 271 259 239 246 239 216 211 209 214 221 210 205 200 205 213 182 159 164 170 174 174 174 177 182 185 188 191 193 194 194 195 197 198 199 200 201 202 202 203 203 202 201 199 199 200 202 204 205 205 207 211 216 221 221 220 220 221 222
290 256 246 242 186 153 269 249 203 240 247 225 218 235 256 237 250 269 265 277 279 249 252 282 291 280 268 263 267 258 242 250 254 237 224 209 209 215 214 209 200 199 202 187 177 176 172 171 173 175 179 183 183 185 188 192 194 196 197 198 198 199 200 201 203 204 205 205 205 205 206 204 204 205 206 208 208 208 212 216 218 219 218 218 219 221
253 247 233 214 139 175 247 265 205 224 261 233 216 218 240 229 209 235 272 318 308 276 243 259 293 285 251 239 253 258 254 259 268 264 258 240 223 223 217 214 211 202 195 189 186 181 175 175 178 180 181 181 182 185 189 192 195 197 198 197 198 199 200 201 203 204 205 204 203 201 200 201 201 202 204 205 205 205 209 212 213 215 214 214 216 220
260 253 217 216 244 213 219 250 220 192 226 262 225 215 225 229 222 235 262 310 310 282 236 178 252 279 279 241 241 251 257 254 255 257 255 240 224 229 223 215 220 216 203 194 189 182 181 183 182 181 181 181 183 187 192 194 195 196 196 197 198 199 200 201 202 203 204 203 200 194 189 188 189 194 200 202 201 200 202 207 211 211 211 212 214 217
261 238 170 192 234 228 217 239 225 176 185 262 234 212 215 221 226 236 240 218 224 261 270 155 215 263 319 294 255 246 254 253 249 248 252 245 220 217 218 212 214 217 212 208 200 187 183 183 181 181 182 183 186 191 193 194 195 195 195 196 197 198 199 200 201 202 202 201 199 196 191 189 191 194 198 202 203 202 204 207 209 208 207 210 211 213
219 218 177 183 200 219 229 247 228 172 159 243 239 203 201 210 219 227 224 215 224 255 298 301 226 258 289 274 260 242 255 267 265 256 252 249 228 218 219 214 209 209 205 204 205 194 189 186 184 185 185 188 192 193 191 191 194 195 195 195 196 197 199 198 200 201 201 200 198 196 193 193 197 199 197 199 201 203 204 205 204 204 204 205 207 210
184 208 216 199 208 223 221 223 209 163 162 244 247 212 203 208 218 221 212 224 239 247 277 269 235 255 261 254 250 230 250 272 270 260 255 250 238 225 226 225 216 213 206 198 198 195 194 193 192 190 190 194 195 191 189 191 193 194 193 193 194 197 197 197 199 200 200 201 199 195 193 194 197 199 197 196 198 199 200 200 198 200 200 199 201 206
211 222 215 201 225 228 218 219 197 167 202 249 272 259 233 219 223 224 206 219 236 223 242 242 205 219 263 254 221 222 248 256 255 258 257 252 245 230 228 233 227 220 212 204 200 195 194 196 196 196 196 198 196 191 190 190 190 191 192 192 194 196 196 196 199 200 199 200 199 197 194 193 193 193 192 192 193 195 195 194 192 194 196 196 197 200
247 254 236 208 220 207 208 224 205 194 216 261 331 312 298 286 223 215 205 196 222 240 240 234 204 198 255 259 201 209 231 234 242 259 265 263 259 242 229 229 226 219 211 205 204 200 197 196 195 196 199 199 195 191 189 186 187 189 191 192 194 195 195 196 199 199 198 199 199 198 195 193 192 189 187 187 188 189 189 188 187 190 193 195 197 198
273 258 250 235 218 195 206 240 226 213 208 214 293 293 325 322 351 118 213 161 198 241 237 229 203 192 235 253 219 222 229 231 234 244 257 262 254 246 235 230 228 219 209 202 201 201 197 193 191 192 193 190 186 185 186 186 187 188 191 193 192 193 195 197 198 198 198 197 198 198 196 195 194 192 189 187 187 188 187 186 186 188 191 192 195 198
277 236 244 252 221 186 194 244 243 236 211 185 214 186 191 292 347 313 240 175 211 246 236 205 185 197 233 238 236 243 242 240 237 231 243 252 243 239 234 229 232 223 214 207 201 200 195 191 190 186 183 181 180 183 186 188 188 189 192 193 191 193 195 196 197 197 197 197 197 198 197 196 196 195 193 191 190 190 190 190 189 189 191 193 195 199
296 286 262 254 276 197 189 208 217 218 209 191 192 171 177 209 237 248 249 226 227 255 248 191 175 222 257 237 230 235 236 235 237 233 231 238 238 236 228 223 225 221 215 209 202 200 198 196 193 185 182 182 182 184 187 189 189 189 192 193 193 194 194 195 197 197 197 198 198 198 197 196 196 196 195 194 194 194 194 195 195 196 197 198 200 202
270 300 249 188 261 209 198 207 200 193 199 194 175 155 175 182 182 234 236 219 220 239 241 189 164 200 216 228 221 219 229 232 233 236 232 239 245 237 224 216 222 226 221 214 203 200 202 199 193 188 188 186 184 185 187 189 189 190 191 193 193 194 194 195 196 197 197 198 198 198 197 197 198 197 197 197 198 199 199 200 201 203 204 205 205 206
229 264 248 224 247 169 205 210 168 174 216 221 164 132 213 190 176 249 228 205 194 215 235 197 193 218 212 254 243 221 238 241 236 240 231 238 248 234 209 214 220 224 220 216 207 201 203 202 196 193 192 190 187 186 188 188 189 190 191 193 195 195 194 194 196 197 197 197 197 198 197 197 198 198 197 197 199 202 203 203 204 207 208 208 208 208
227 261 269 284 292 231 220 208 169 174 192 215 194 198 221 176 154 242 262 287 98 194 264 199 195 249 264 276 282 267 257 254 245 241 226 236 253 218 197 221 228 226 219 215 209 203 201 200 200 199 196 192 189 188 189 189 190 192 192 192 194 195 193 195 197 197 196 197 197 197 196 197 197 196 196 197 198 201 203 205 206 207 206 205 207 206
232 270 270 243 261 257 214 182 200 205 166 143 200 203 181 105 116 211 264 327 46 204 274 217 182 216 225 251 300 275 238 261 271 257 257 285 320 351 216 224 234 234 227 221 218 213 206 200 200 202 200 196 192 191 191 192 192 193 193 193 192 192 193 195 196 195 195 196 197 197 196 197 197 197 198 198 199 201 203 204 204 204 203 203 204 205
186 265 278 235 245 271 99 134 244 263 199 171 221 211 151 156 196 182 177 250 238 217 271 290 237 211 201 221 287 231 213 275 317 337 11 353 334 323 281 247 245 244 237 225 224 222 214 207 203 202 201 199 197 196 194 193 192 192 193 194 194 194 195 194 194 193 195 196 197 198 197 197 198 197 198 198 200 202 202 202 203 203 203 202 203 205
156 227 286 266 242 287 52 131 205 258 230 169 273 281 165 176 180 161 180 174 172 202 234 281 299 260 224 211 226 223 190 159 14 14 359 308 292 293 282 263 241 241 245 230 222 222 216 212 208 204 201 198 197 198 197 194 190 190 192 193 194 195 194 193 193 193 195 196 197 197 197 197 197 197 198 198 200 201 201 202 203 202 201 202 204 208
159 209 252 289 305 293 245 201 192 204 191 153 191 219 195 161 113 133 252 188 140 166 194 180 269 262 253 212 197 202 166 139 103 28 300 277 275 274 272 273 244 229 245 242 226 223 217 211 209 207 204 199 196 197 196 192 190 190 191 192 193 193 192 192 193 193 194 195 196 197 197 197 197 197 197 198 200 200 199 201 202 201 200 201 206 209
183 207 230 262 293 249 233 232 193 174 165 159 172 206 209 189 137 138 257 254 172 163 174 155 234 264 260 216 170 165 158 149 138 219 284 286 289 290 288 286 271 242 242 245 236 225 217 211 207 206 204 199 195 193 191 189 189 189 189 191 192 192 192 192 192 193 193 193 195 197 197 196 196 196 196 196 197 197 198 199 199 201 202 201 205 208
181 169 237 240 245 246 249 251 215 190 183 163 170 214 240 205 166 169 215 245 228 218 189 128 252 271 263 221 164 140 147 180 180 203 277 290 285 290 293 289 283 260 240 241 239 226 219 212 205 202 200 196 194 190 186 186 188 189 190 192 191 192 193 193 192 192 192 191 194 196 195 195 195 195 194 194 194 195 197 197 199 203 204 202 203 206
181 162 241 249 255 256 260 262 245 232 231 237 222 213 220 230 215 200 193 183 191 236 154 99 240 266 275 251 242 297 310 290 225 216 256 284 289 289 285 286 289 281 268 269 266 233 219 214 206 201 197 194 192 188 184 185 187 188 191 191 191 194 194 192 190 190 189 191 193 193 192 193 193 193 193 193 193 195 196 198 201 204 203 201 202 204
194 177 206 254 273 269 272 263 249 232 180 212 231 195 198 222 237 237 204 141 289 248 176 157 235 249 273 299 305 305 319 331 312 274 254 270 292 302 298 296 296 295 300 316 316 260 219 214 207 200 195 191 189 187 185 186 186 188 190 191 192 193 192 189 188 188 188 189 189 189 190 191 191 192 192 192 193 195 196 199 203 203 202 200 199 201
207 186 164 214 244 248 243 208 217 180 155 192 222 195 196 207 215 223 172 156 234 241 183 191 237 257 293 322 325 323 332 335 322 313 302 277 276 291 295 297 297 299 306 317 317 275 220 211 208 199 191 188 188 187 186 186 187 188 189 191 193 191 187 187 187 186 186 186 186 187 188 189 190 191 191 191 193 194 196 200 202 200 199 197 194 197
132 217 206 218 238 246 245 228 189 121 135 188 201 198 197 201 200 181 128 180 204 197 204 223 237 277 299 306 307 307 315 314 308 308 308 302 299 291 282 282 287 290 299 312 312 280 224 205 203 197 190 187 187 187 187 188 187 187 188 190 191 189 185 185 185 185 184 185 186 186 186 188 190 191 190 190 192 194 196 200 201 197 194 195 196 200
188 243 218 218 238 250 255 250 186 118 229 230 190 199 206 196 181 175 201 214 162 140 236 247 233 259 278 272 270 281 290 294 292 292 294 299 301 294 285 281 283 291 309 322 310 281 233 207 202 195 191 188 186 186 188 188 188 187 187 188 187 186 184 183 183 183 183 184 185 186 186 189 190 190 189 190 191 193 194 197 200 199 197 199 201 204
216 254 210 206 240 252 256 256 218 166 216 238 199 206 218 196 183 198 221 229 158 185 231 247 247 255 263 262 263 265 266 273 280 282 286 289 288 285 281 277 283 302 320 321 303 273 231 210 203 195 192 188 185 186 186 186 187 186 186 187 185 184 183 182 181 181 182 184 185 186 185 187 188 188 187 187 188 190 190 193 199 200 199 199 200 204
224 254 208 196 247 263 257 254 234 185 199 228 223 216 221 214 204 204 213 216 221 238 246 254 267 271 265 252 254 260 262 267 275 280 282 282 277 271 267 271 291 310 311 306 292 261 223 208 204 196 191 187 184 185 183 184 185 184 183 184 184 183 182 180 180 180 181 183 184 184 183 184 186 185 184 185 185 186 187 191 196 195 192 194 198 201
214 258 206 176 245 277 256 231 208 185 188 212 229 218 204 213 214 206 206 208 218 244 252 255 270 272 258 239 243 261 269 275 281 278 275 268 258 255 267 294 311 302 287 287 281 250 217 206 202 195 190 187 186 184 182 183 184 183 183 182 181 182 181 179 179 180 181 182 181 179 179 180 182 182 183 184 183 185 187 190 192 190 189 194 197 199
202 273 273 162 206 274 263 140 147 159 170 226 253 238 209 203 207 203 200 199 204 221 234 237 249 257 258 231 238 262 269 271 271 270 269 263 253 263 306 317 303 284 273 277 273 242 213 202 197 192 189 187 185 184 182 182 182 181 181 181 181 181 179 178 179 180 180 179 177 176 177 179 180 181 182 182 182 184 187 188 188 187 188 192 194 196
202 255 285 237 239 267 331 64 119 128 119 257 255 231 209 201 199 199 204 209 208 206 210 224 234 248 281 357 283 271 269 263 263 264 266 274 289 322 320 297 281 276 271 271 267 239 212 201 193 189 188 185 185 186 184 181 181 181 181 181 181 178 177 178 179 179 178 176 175 175 176 178 179 180 181 180 181 182 184 184 184 184 187 191 192 194
219 240 271 283 274 304 1 53 104 123 170 247 259 223 204 201 194 193 203 210 208 204 210 228 241 257 273 267 259 262 264 262 266 271 274 281 304 313 297 282 274 269 261 259 259 239 211 196 190 187 187 187 187 187 184 182 183 183 182 180 178 177 178 179 178 176 174 174 174 175 175 177 180 181 180 179 178 180 181 182 184 186 188 189 190 192
244 238 259 282 261 305 16 65 79 260 234 251 287 279 199 196 196 207 232 230 216 219 230 243 255 262 264 262 260 263 269 272 275 281 284 279 265 265 274 275 272 265 255 247 245 233 208 192 186 183 185 187 186 184 183 183 184 183 180 178 178 178 178 177 175 173 172 172 174 174 174 177 180 181 180 179 178 179 180 181 183 184 186 188 190 193
250 255 250 261 246 305 29 73 148 250 256 271 312 355 48 131 156 216 282 276 242 220 229 252 263 266 269 273 275 277 279 283 285 284 283 281 268 249 252 258 261 260 253 241 233 222 201 190 186 181 181 182 181 180 181 184 183 179 178 179 180 179 177 174 172 170 170 172 173 173 174 176 178 179 178 177 178 179 180 181 181 181 184 187 190 192
237 264 298 283 303 14 340 261 251 287 321 332 340 353 344 294 202 170 233 266 258 195 205 252 266 276 277 274 277 284 289 298 305 299 286 279 261 235 236 244 254 260 252 238 234 217 194 187 184 178 175 174 177 181 182 183 181 176 176 180 180 177 174 172 171 171 172 173 174 175 175 176 177 178 177 176 177 179 180 181 181 180 182 185 186 187
244 252 315 295 319 19 346 302 341 5 334 302 309 298 284 272 250 192 194 265 286 54 339 281 270 272 271 270 282 295 320 332 310 288 277 258 215 211 251 257 255 258 250 234 230 209 182 176 174 171 172 173 178 184 183 180 178 175 177 180 178 175 173 171 172 173 174 174 175 174 175 177 178 178 176 176 177 179 180 180 180 181 183 185 185 187
351 68 197 278 322 351 10 337 328 285 254 296 323 322 320 312 205 166 149 257 245 239 290 275 267 265 271 293 310 325 1 342 288 278 275 252 208 243 295 282 262 256 247 228 217 196 171 165 164 165 168 171 176 180 180 178 177 177 179 180 176 173 173 175 175 175 174 173 174 174 175 178 180 178 177 178 180 181 181 179 179 181 185 187 188 189
4 0 15 39 3 319 351 320 250 238 258 277 304 318 326 337 128 126 117 262 276 308 309 294 296 304 310 316 318 313 249 249 268 281 291 297 301 305 293 276 264 261 256 222 198 177 157 152 154 158 164 170 173 175 177 178 179 181 182 178 174 174 178 180 179 176 174 172 172 174 177 179 179 179 179 180 180 181 180 178 178 180 183 185 187 188
344 339 0 40 331 310 351 316 284 274 232 243 307 325 326 339 86 101 185 259 297 313 311 305 304 306 309 302 289 257 240 251 272 284 293 303 309 311 302 273 254 267 352 100 121 139 147 150 157 165 169 171 172 173 176 178 181 184 181 176 177 182 183 180 176 173 171 170 172 175 178 179 181 181 181 181 181 180 180 180 180 180 181 182 184 185
344 336 334 3 337 324 275 270 287 274 235 279 332 331 323 91 95 253 267 287 297 297 297 301 297 295 300 290 272 260 268 274 279 284 292 301 306 315 316 281 217 116 60 112 129 144 153 155 161 167 169 167 166 169 174 177 180 182 179 180 184 183 178 172 169 168 167 168 172 175 176 178 181 183 182 181 180 179 178 180 181 180 179 178 180 184
332 327 339 352 331 317 333 342 357 315 283 324 342 336 343 55 288 272 290 296 284 277 287 296 289 280 285 287 285 289 290 290 294 300 303 307 316 325 321 277 200 162 134 132 142 153 156 155 158 156 154 158 164 171 175 176 177 180 180 183 181 173 166 164 164 164 165 167 171 173 175 178 181 182 182 180 180 178 176 176 178 178 176 176 178 181
305 333 338 338 335 354 0 348 336 275 285 313 338 325 304 307 280 277 301 304 298 298 301 300 296 288 281 287 294 299 298 302 313 317 316 321 326 325 315 287 225 184 159 145 147 149 145 143 148 149 151 156 163 174 181 177 174 175 176 176 169 162 160 160 160 162 165 168 170 174 177 179 180 181 180 178 178 177 174 174 175 175 176 177 177 177
330 337 310 294 306 316 277 264 263 278 294 302 308 278 279 290 286 279 294 303 313 318 313 308 305 298 293 293 293 295 301 308 316 322 324 324 319 311 307 309 301 186 156 146 145 141 132 123 126 133 142 151 159 175 186 179 169 165 165 165 164 161 159 159 160 163 167 170 174 176 176 176 177 178 178 177 176 175 173 172 174 174 176 178 177 179
302 331 311 277 289 283 262 258 271 303 306 305 311 303 286 286 286 285 301 314 316 312 308 299 292 290 295 301 300 304 312 317 323 327 319 303 296 300 315 330 345 77 139 145 148 145 136 130 130 130 129 140 159 177 185 176 168 165 164 165 165 163 161 161 163 166 170 175 177 174 172 173 174 175 175 175 177 177 176 176 176 176 177 179 180 182
319 337 323 304 318 325 311 306 318 322 314 310 317 321 320 313 306 308 317 308 300 303 303 295 290 287 286 290 304 313 312 313 316 309 291 279 292 317 333 340 353 20 49 73 138 150 133 123 127 134 136 148 164 174 176 175 174 174 172 169 165 163 164 165 166 168 172 174 173 170 170 171 171 170 171 173 175 176 176 177 178 176 177 180 181 181
330 333 331 326 324 312 291 300 318 325 321 312 314 322 333 327 319 322 322 309 309 322 317 307 302 289 282 301 320 307 296 297 300 296 301 323 342 346 347 355 6 14 21 23 5 269 127 113 125 141 149 160 169 173 176 177 177 174 169 164 163 166 168 168 168 169 171 172 170 168 169 170 169 169 170 172 173 175 176 177 178 179 182 185 185 183
310 320 332 325 313 300 289 311 328 331 330 350 346 339 334 322 316 320 325 331 345 348 336 329 327 320 336 354 344 323 326 335 331 325 329 344 353 354 355 3 15 23 22 15 344 274 227 195 170 162 168 176 177 177 176 173 171 171 168 165 168 172 170 168 168 168 168 168 167 166 167 168 170 171 171 171 174 177 180 182 184 185 188 191 194 194
329 333 335 330 320 317 314 320 331 331 314 328 343 340 329 323 322 325 332 342 351 351 346 342 341 348 10 19 4 352 351 343 331 326 331 349 359 358 1 6 13 25 40 52 144 222 217 209 198 187 183 183 180 178 174 170 170 172 172 171 171 170 168 165 164 165 165 165 166 167 168 170 171 172 172 171 172 173 177 182 187 190 192 193 196 199
345 316 312 309 292 283 286 298 315 317 293 309 330 333 325 325 326 326 333 342 343 346 352 349 345 353 4 14 24 16 348 325 331 338 345 3 6 359 3 11 11 11 26 57 117 137 163 190 193 188 183 181 179 178 176 174 172 172 174 172 168 168 169 166 163 164 168 169 170 171 171 171 170 170 171 171 171 171 171 174 181 190 195 196 197 198